Temp
76 76 76 75 75 76 76 76 76 75 74 74 73 72 72 71 72 71 69 69 68 67 67 67 67 66 67 66 66 67 66 63 63 63 62 62 61 61 61 61 60 60
75 75 76 76 75 76 75 75 76 76 74 74 74 74 73 72 71 71 69 69 68 69 68 67 67 67 67 67 66 65 65 64 63 65 62 62 62 61 60 59 60 60
75 75 75 74 74 75 75 75 75 75 75 75 75 74 72 72 70 70 69 69 70 68 67 67 67 67 68 67 65 65 65 63 63 64 63 63 62 61 61 61 61 60
75 75 76 76 76 76 76 75 75 75 75 74 74 74 72 72 70 70 69 69 69 68 68 68 67 68 68 67 66 65 65 65 64 64 62 62 63 63 61 62 61 62
75 75 76 76 77 77 76 76 76 76 75 74 74 73 72 70 70 71 69 69 69 68 68 67 67 67 67 66 66 64 64 64 64 64 63 62 62 62 62 62 61 60
76 77 78 77 77 76 76 76 77 77 76 74 73 73 72 71 71 71 70 69 69 69 68 68 68 67 67 67 65 65 64 64 64 64 64 63 63 63 63 62 61 61
75 76 76 78 77 77 76 77 77 77 77 76 75 73 73 71 71 72 72 71 71 70 70 68 67 66 67 66 66 65 65 65 65 65 64 64 63 61 63 62 63 62
75 76 77 78 77 76 76 77 76 76 76 76 74 74 74 73 73 73 72 71 72 71 70 70 69 68 67 67 66 65 64 65 64 65 65 64 62 62 62 63 61 62
75 76 77 76 76 76 75 76 76 76 77 75 75 74 74 74 74 73 72 72 72 71 71 70 70 69 67 66 66 66 65 64 64 64 63 63 62 63 65 63 61 61
75 76 76 77 76 76 75 76 77 77 77 77 77 75 75 73 75 75 73 72 71 71 71 70 70 68 67 68 68 67 66 65 65 64 64 64 64 65 65 64 63 61
75 76 75 75 75 76 76 76 76 77 77 78 77 75 75 75 74 75 73 72 70 71 71 71 70 70 69 68 67 67 67 66 66 66 64 64 64 65 64 64 63 62
74 75 75 75 76 76 76 76 77 77 77 77 79 76 75 75 74 74 75 74 74 73 73 72 72 71 70 69 69 67 66 66 66 65 65 66 65 65 65 65 64 63
75 75 75 75 75 76 76 77 77 77 78 79 79 77 75 74 75 74 74 75 75 73 72 71 71 70 70 69 69 68 67 66 65 65 64 65 66 66 66 66 65 65
76 76 76 76 77 77 77 77 78 78 77 78 78 77 76 76 76 75 74 75 75 74 73 71 71 70 70 70 69 68 67 66 66 64 65 65 64 66 66 65 65 65
76 77 77 77 77 77 77 77 77 77 77 77 77 76 76 77 76 76 75 74 75 73 73 72 70 69 69 69 68 68 68 66 66 66 65 64 65 65 65 65 66 65
78 77 78 78 77 77 77 77 77 77 77 77 77 76 76 76 76 75 76 74 73 74 72 71 69 68 65 60 61 68 68 68 67 66 66 65 64 64 64 64 64 65
78 78 78 77 77 77 77 78 78 77 77 77 76 76 75 75 74 75 74 74 74 73 71 69 69 68 57 50 50 53 65 66 66 65 65 65 65 64 63 64 64 65
78 78 78 78 78 79 78 79 78 78 77 76 76 75 74 74 72 73 73 73 73 73 71 69 67 60 48 49 49 48 54 65 66 65 65 64 65 65 65 64 64 64
80 79 79 78 79 79 79 78 78 78 77 76 75 75 74 72 72 72 72 72 71 71 70 68 67 54 47 47 47 46 47 56 66 65 64 64 64 64 65 65 64 64
79 79 79 79 79 79 78 79 78 77 76 77 76 75 73 72 72 70 71 71 70 69 67 66 67 55 46 46 46 44 44 49 64 64 64 65 64 64 64 63 63 63
79 79 79 79 79 79 78 78 77 77 77 76 76 75 73 72 71 70 70 69 67 65 66 66 68 51 46 45 45 44 43 47 61 62 63 64 64 64 63 63 63 63
79 79 79 79 79 79 78 78 77 76 76 76 75 75 75 73 71 70 68 67 67 66 65 66 67 46 45 44 44 43 42 53 59 61 61 63 63 64 64 63 63 63
80 79 78 78 79 78 78 77 77 77 76 77 75 74 73 72 71 70 70 69 68 67 66 66 67 50 44 43 43 42 46 58 59 61 62 62 63 63 63 63 63 64
81 81 80 78 79 78 78 77 77 78 77 76 74 73 72 72 72 71 71 70 68 66 65 65 66 54 43 43 43 41 50 59 61 62 62 63 63 63 63 64 63 58
81 80 80 79 79 78 77 77 77 77 77 76 75 75 74 75 74 71 69 68 67 67 62 63 66 57 42 43 42 41 49 60 63 64 62 63 63 63 63 63 64 61
80 79 79 79 79 79 78 78 78 78 76 75 74 75 75 74 73 71 70 68 68 67 66 64 64 64 51 42 43 42 44 59 63 63 63 63 63 64 64 64 63 64
MSLP
1020.73 1020.65 1020.77 1021.05 1021.05 1020.93 1020.89 1021.05 1021.17 1021.25 1021.45 1021.45 1021.77 1021.93 1022.13 1022.21 1022.37 1022.61 1022.85 1023.01 1023.13 1023.17 1023.25 1023.29 1023.33 1023.37 1023.41 1023.45 1023.49 1023.41 1023.61 1023.89 1023.97 1024.09 1024.21 1024.21 1024.33 1024.33 1024.37 1024.49 1024.61 1024.49
1020.65 1020.61 1020.61 1020.69 1020.89 1020.93 1021.01 1021.05 1021.05 1021.13 1021.29 1021.41 1021.45 1021.65 1021.81 1022.13 1022.29 1022.49 1022.77 1022.93 1023.09 1023.05 1023.13 1023.21 1023.25 1023.29 1023.29 1023.33 1023.49 1023.53 1023.61 1023.81 1023.93 1024.05 1024.25 1024.29 1024.29 1024.45 1024.57 1024.69 1024.61 1024.53
1020.49 1020.57 1020.65 1020.81 1020.81 1020.89 1020.97 1020.97 1021.01 1021.09 1021.13 1021.21 1021.29 1021.53 1021.85 1022.09 1022.29 1022.45 1022.65 1022.81 1022.81 1022.93 1023.09 1023.13 1023.17 1023.25 1023.21 1023.33 1023.49 1023.49 1023.57 1023.73 1023.81 1023.89 1024.01 1024.17 1024.29 1024.29 1024.45 1024.45 1024.45 1024.53
1020.29 1020.37 1020.45 1020.53 1020.57 1020.69 1020.69 1020.85 1020.97 1021.01 1020.97 1021.17 1021.29 1021.45 1021.73 1021.93 1022.17 1022.37 1022.53 1022.73 1022.73 1022.89 1022.97 1022.97 1023.09 1023.13 1023.13 1023.33 1023.41 1023.49 1023.57 1023.57 1023.73 1023.93 1024.05 1024.13 1024.17 1024.17 1024.33 1024.25 1024.33 1024.21
1020.05 1020.17 1020.21 1020.25 1020.25 1020.37 1020.45 1020.65 1020.69 1020.73 1020.85 1020.93 1021.09 1021.29 1021.61 1021.85 1022.05 1022.17 1022.37 1022.53 1022.61 1022.73 1022.81 1022.89 1022.97 1023.05 1023.13 1023.25 1023.29 1023.41 1023.53 1023.53 1023.77 1023.81 1023.85 1023.97 1024.05 1024.17 1024.21 1024.17 1024.25 1024.33
1019.73 1019.81 1019.93 1020.01 1020.05 1020.21 1020.37 1020.45 1020.37 1020.37 1020.57 1020.77 1020.97 1021.13 1021.33 1021.61 1021.81 1021.93 1022.13 1022.25 1022.37 1022.45 1022.61 1022.69 1022.81 1022.93 1022.97 1023.09 1023.21 1023.29 1023.37 1023.45 1023.61 1023.69 1023.69 1023.81 1023.85 1023.97 1024.01 1024.01 1024.09 1024.05
1019.53 1019.65 1019.77 1019.77 1019.85 1019.93 1020.13 1020.09 1020.05 1020.05 1020.17 1020.41 1020.65 1020.97 1021.09 1021.45 1021.61 1021.69 1021.81 1022.01 1022.05 1022.25 1022.29 1022.53 1022.65 1022.81 1022.85 1022.93 1023.01 1023.13 1023.21 1023.29 1023.45 1023.53 1023.49 1023.53 1023.65 1023.89 1023.89 1023.89 1023.81 1023.81
1019.33 1019.41 1019.57 1019.57 1019.73 1019.81 1019.93 1019.93 1019.97 1020.09 1020.13 1020.25 1020.53 1020.69 1020.85 1021.09 1021.21 1021.41 1021.57 1021.73 1021.81 1021.97 1022.09 1022.25 1022.41 1022.57 1022.69 1022.77 1022.81 1022.97 1023.13 1023.21 1023.29 1023.33 1023.29 1023.37 1023.57 1023.61 1023.69 1023.77 1023.81 1023.69
1019.09 1019.25 1019.29 1019.49 1019.57 1019.65 1019.77 1019.73 1019.73 1019.81 1019.89 1020.13 1020.29 1020.45 1020.61 1020.73 1020.85 1021.05 1021.29 1021.41 1021.57 1021.73 1021.85 1022.01 1022.13 1022.29 1022.49 1022.57 1022.65 1022.77 1022.89 1023.05 1023.13 1023.17 1023.25 1023.29 1023.41 1023.33 1023.21 1023.45 1023.65 1023.65
1018.93 1018.97 1019.09 1019.21 1019.41 1019.41 1019.53 1019.49 1019.45 1019.53 1019.61 1019.77 1019.85 1020.05 1020.33 1020.49 1020.57 1020.73 1020.97 1021.17 1021.33 1021.49 1021.61 1021.81 1021.89 1022.05 1022.25 1022.29 1022.33 1022.49 1022.61 1022.73 1022.97 1023.05 1023.09 1023.13 1023.13 1023.05 1023.01 1023.09 1023.25 1023.37
1018.73 1018.73 1018.89 1018.97 1019.05 1019.05 1019.17 1019.21 1019.25 1019.29 1019.33 1019.45 1019.57 1019.85 1019.97 1020.17 1020.41 1020.45 1020.69 1020.89 1021.09 1021.21 1021.33 1021.53 1021.61 1021.73 1021.85 1022.05 1022.09 1022.25 1022.33 1022.45 1022.65 1022.73 1022.89 1022.89 1022.93 1022.89 1022.93 1022.93 1023.01 1023.17
1018.49 1018.57 1018.61 1018.69 1018.73 1018.81 1018.85 1018.89 1018.93 1018.97 1019.09 1019.17 1019.17 1019.49 1019.69 1019.85 1020.01 1020.13 1020.25 1020.41 1020.57 1020.77 1020.89 1021.05 1021.21 1021.41 1021.53 1021.65 1021.77 1022.01 1022.17 1022.29 1022.41 1022.49 1022.61 1022.61 1022.69 1022.77 1022.73 1022.81 1022.89 1022.89
1018.09 1018.21 1018.29 1018.33 1018.37 1018.41 1018.45 1018.53 1018.57 1018.65 1018.73 1018.81 1018.85 1019.05 1019.37 1019.61 1019.69 1019.85 1019.93 1020.01 1020.09 1020.29 1020.53 1020.69 1020.85 1021.05 1021.25 1021.41 1021.53 1021.69 1021.89 1022.05 1022.25 1022.37 1022.45 1022.49 1022.41 1022.45 1022.53 1022.53 1022.61 1022.65
1017.65 1017.73 1017.85 1017.97 1017.97 1018.01 1018.13 1018.17 1018.21 1018.33 1018.45 1018.49 1018.53 1018.81 1019.01 1019.17 1019.29 1019.45 1019.57 1019.69 1019.73 1019.93 1020.13 1020.41 1020.61 1020.81 1020.97 1021.17 1021.37 1021.53 1021.73 1021.81 1021.93 1022.13 1022.21 1022.25 1022.33 1022.29 1022.29 1022.37 1022.41 1022.45
1017.21 1017.33 1017.41 1017.53 1017.65 1017.69 1017.81 1017.89 1017.97 1018.05 1018.13 1018.25 1018.41 1018.57 1018.69 1018.69 1018.81 1018.93 1019.21 1019.41 1019.45 1019.61 1019.85 1020.13 1020.33 1020.53 1020.73 1020.89 1021.09 1021.29 1021.49 1021.69 1021.69 1021.77 1021.93 1022.01 1022.05 1022.09 1022.13 1022.13 1022.17 1022.21
1016.81 1017.01 1017.09 1017.17 1017.29 1017.41 1017.49 1017.57 1017.65 1017.77 1017.89 1018.01 1018.13 1018.21 1018.37 1018.45 1018.53 1018.65 1018.81 1019.01 1019.21 1019.33 1019.65 1019.89 1020.13 1020.25 1020.49 1020.77 1020.89 1020.97 1021.17 1021.33 1021.45 1021.53 1021.61 1021.69 1021.81 1021.81 1021.85 1021.93 1021.93 1021.97
1016.49 1016.61 1016.73 1016.89 1016.93 1017.01 1017.09 1017.21 1017.29 1017.37 1017.53 1017.65 1017.73 1017.89 1018.05 1018.21 1018.37 1018.49 1018.57 1018.65 1018.81 1019.05 1019.41 1019.61 1019.77 1020.01 1020.33 1020.65 1020.93 1021.09 1021.05 1021.13 1021.25 1021.37 1021.41 1021.41 1021.49 1021.57 1021.57 1021.57 1021.69 1021.73
1016.01 1016.17 1016.33 1016.41 1016.49 1016.61 1016.69 1016.77 1016.89 1017.01 1017.17 1017.29 1017.41 1017.61 1017.77 1017.89 1018.17 1018.21 1018.29 1018.45 1018.57 1018.73 1019.05 1019.41 1019.61 1019.85 1020.13 1020.49 1020.85 1021.05 1021.17 1021.01 1021.01 1021.09 1021.17 1021.17 1021.21 1021.21 1021.21 1021.25 1021.29 1021.37
1015.49 1015.73 1015.89 1016.01 1016.09 1016.13 1016.21 1016.37 1016.49 1016.61 1016.73 1016.89 1017.05 1017.09 1017.37 1017.69 1017.81 1018.01 1018.09 1018.17 1018.41 1018.65 1018.93 1019.09 1019.13 1019.45 1019.97 1020.29 1020.53 1020.81 1021.01 1021.05 1020.73 1020.77 1020.85 1020.89 1020.93 1020.97 1020.97 1020.93 1020.97 1021.05
1015.09 1015.29 1015.49 1015.57 1015.61 1015.73 1015.89 1016.01 1016.13 1016.29 1016.33 1016.37 1016.53 1016.73 1017.05 1017.25 1017.45 1017.65 1017.77 1017.97 1018.29 1018.69 1018.73 1018.61 1018.65 1018.97 1019.61 1019.93 1020.17 1020.53 1020.85 1021.01 1020.65 1020.53 1020.57 1020.57 1020.61 1020.69 1020.73 1020.81 1020.85 1020.85
1014.69 1014.89 1015.09 1015.17 1015.25 1015.37 1015.53 1015.65 1015.77 1015.85 1015.97 1016.05 1016.17 1016.37 1016.61 1016.85 1017.05 1017.29 1017.53 1017.81 1017.97 1018.05 1017.97 1018.17 1018.09 1018.49 1019.09 1019.57 1020.01 1020.61 1021.01 1021.17 1020.57 1020.45 1020.37 1020.33 1020.37 1020.41 1020.49 1020.57 1020.61 1020.69
1014.25 1014.49 1014.65 1014.81 1014.93 1015.01 1015.17 1015.33 1015.41 1015.49 1015.61 1015.65 1015.81 1015.89 1016.05 1016.29 1016.61 1016.81 1017.05 1017.13 1017.25 1017.53 1017.85 1017.81 1017.69 1018.25 1018.81 1019.41 1019.93 1020.41 1021.01 1021.09 1020.53 1020.29 1020.21 1020.09 1020.05 1020.13 1020.21 1020.29 1020.33 1020.41
1013.77 1014.01 1014.25 1014.37 1014.45 1014.65 1014.81 1014.89 1015.01 1015.09 1015.13 1015.17 1015.49 1015.61 1015.81 1016.01 1016.17 1016.37 1016.45 1016.73 1016.97 1017.33 1017.49 1017.49 1017.45 1018.09 1018.69 1019.29 1019.77 1020.25 1020.77 1020.33 1020.13 1019.97 1019.81 1019.77 1019.73 1019.77 1019.85 1019.93 1020.01 1020.05
1013.29 1013.53 1013.77 1013.97 1014.13 1014.29 1014.33 1014.37 1014.45 1014.53 1014.69 1014.85 1015.17 1015.33 1015.49 1015.57 1015.69 1015.85 1016.05 1016.29 1016.65 1016.89 1017.01 1017.13 1017.05 1017.65 1018.45 1019.09 1019.57 1019.97 1019.93 1019.57 1019.45 1019.33 1019.25 1019.25 1019.29 1019.45 1019.45 1019.45 1019.49 1019.85
1012.85 1013.05 1013.29 1013.45 1013.65 1013.73 1013.85 1014.01 1014.13 1014.25 1014.29 1014.41 1014.65 1014.81 1015.01 1015.05 1015.25 1015.57 1015.85 1016.13 1016.33 1016.25 1016.37 1016.61 1016.65 1017.25 1018.09 1018.65 1019.21 1019.65 1019.69 1019.17 1018.89 1018.69 1018.73 1018.73 1018.81 1018.85 1019.01 1019.01 1018.97 1019.25
1012.41 1012.69 1012.89 1013.09 1013.21 1013.29 1013.37 1013.49 1013.53 1013.73 1013.93 1014.13 1014.33 1014.45 1014.65 1014.81 1015.09 1015.41 1015.61 1015.69 1015.65 1015.77 1016.01 1016.29 1016.53 1016.69 1017.65 1018.17 1018.73 1019.21 1019.33 1018.81 1018.37 1018.25 1018.13 1018.25 1018.37 1018.33 1018.25 1018.37 1018.49 1018.49
Wind_Speed
9 8 7 7 6 5 4 5 4 3 3 3 3 4 4 4 5 4 4 3 4 4 4 4 4 4 5 5 4 4 5 5 4 4 4 4 4 4 4 4 3 2
10 8 7 6 6 6 4 4 3 3 3 3 3 4 4 6 6 5 5 5 5 5 5 5 5 5 5 4 4 4 4 4 4 3 4 4 4 4 4 4 3 2
10 9 8 8 7 7 6 5 4 4 3 3 4 4 5 5 6 6 5 5 5 5 5 5 5 4 4 5 4 4 4 4 4 4 3 3 3 3 3 2 3 2
11 10 9 9 8 7 6 5 5 5 4 4 5 5 6 6 6 7 6 6 5 5 5 5 5 4 4 5 4 3 4 4 4 4 3 3 3 3 3 2 2 1
11 10 9 9 8 8 6 6 7 6 6 5 5 7 7 7 7 7 7 7 6 6 6 6 5 5 5 5 4 4 4 3 4 4 3 3 3 2 2 3 2 2
11 10 10 10 9 8 7 8 8 7 6 6 7 7 7 8 7 7 8 7 7 6 6 6 6 5 5 5 5 4 4 4 4 4 4 4 3 3 2 3 3 3
11 11 11 10 9 9 8 8 7 6 5 5 6 7 7 8 8 8 8 7 7 6 6 6 6 6 5 5 4 5 4 4 5 5 4 4 3 3 3 3 2 2
12 11 10 10 10 9 9 8 7 6 5 5 6 7 8 9 9 8 7 8 7 7 6 6 7 7 6 5 5 5 5 4 4 5 4 4 3 4 4 3 2 3
11 11 11 11 10 9 9 9 8 7 6 6 7 7 8 8 8 8 8 8 8 7 7 7 7 7 6 6 5 6 6 5 5 5 5 5 5 5 5 4 4 4
12 12 12 12 11 10 10 9 8 7 7 7 7 7 8 8 8 9 8 8 8 8 8 7 8 7 7 6 6 6 6 6 6 6 5 5 5 5 5 5 5 4
13 12 12 12 12 10 11 10 10 8 7 8 7 7 8 8 8 9 9 9 8 9 8 8 8 8 8 7 6 6 6 6 6 6 6 6 6 5 5 5 5 5
13 13 13 13 12 11 11 10 9 9 9 8 8 8 8 8 9 9 9 10 9 9 9 8 8 8 8 8 7 7 7 6 6 6 6 6 6 6 6 6 6 6
14 14 12 12 12 11 10 10 10 10 10 9 8 9 9 9 9 10 9 9 9 9 9 9 9 8 8 7 8 8 8 7 7 7 7 6 6 7 7 7 7 6
14 14 13 13 12 11 11 10 10 10 9 9 8 9 9 10 10 10 9 9 9 9 9 9 9 8 8 8 8 7 7 8 7 7 7 7 7 7 7 7 7 7
13 12 12 12 12 12 11 11 10 10 9 9 9 9 8 9 9 10 10 10 10 10 10 9 9 8 7 8 8 8 8 8 8 8 8 7 7 8 8 8 8 7
13 12 12 12 12 12 12 11 10 10 10 10 10 9 9 9 9 9 10 10 10 11 10 9 8 8 8 11 9 8 8 7 7 7 8 8 8 7 8 8 8 8
13 13 13 13 13 12 12 12 12 10 10 10 10 9 9 9 9 10 10 10 10 10 11 9 8 7 12 13 12 8 7 7 7 7 7 8 8 8 8 8 8 9
14 14 14 14 13 14 13 12 11 11 11 10 10 10 9 8 9 10 10 9 9 10 10 9 8 10 14 15 14 13 9 7 7 7 7 7 8 8 8 7 8 7
14 14 14 14 14 13 12 12 12 12 12 11 11 10 8 9 10 9 10 10 9 9 8 9 10 13 15 16 16 15 14 11 8 7 7 8 8 8 8 8 7 7
15 15 14 14 13 13 12 13 12 12 11 10 9 9 9 9 9 10 10 9 8 7 9 10 11 13 16 16 17 16 15 13 10 9 8 8 9 8 8 8 8 8
15 15 15 14 14 13 12 13 13 12 11 10 9 9 10 10 10 10 8 9 11 12 12 10 10 15 18 17 16 15 14 11 10 9 8 8 9 9 9 9 9 8
15 14 14 14 14 13 13 13 13 12 12 10 9 9 8 8 8 8 10 12 12 11 9 11 9 16 17 16 15 15 14 9 10 10 9 9 9 9 9 9 9 9
15 15 14 14 14 14 14 14 13 13 11 9 9 9 9 9 9 9 9 10 10 9 11 10 8 13 16 16 15 15 12 10 10 9 9 10 9 9 9 9 9 10
14 14 14 14 14 14 14 13 12 11 9 8 9 9 10 9 9 8 8 8 9 10 10 10 9 12 17 16 16 17 15 11 10 10 10 9 9 9 8 9 10 12
13 14 14 13 14 14 12 13 12 10 9 8 9 9 9 8 7 7 6 6 9 12 12 13 9 10 18 16 17 18 15 11 10 10 10 9 9 9 9 8 9 11
11 12 12 13 13 13 12 12 10 9 9 8 7 7 6 6 6 6 8 9 9 11 9 9 10 8 14 18 18 18 19 12 10 10 10 10 9 8 8 8 8 8
Wind_Direction
204 199 199 198 201 208 199 191 201 199 221 199 198 181 178 160 150 148 148 161 165 158 151 144 135 135 125 115 115 110 102 104 100 100 107 101 103 104 100 92 86 101
203 208 210 201 206 210 215 236 237 239 208 217 206 177 168 157 156 160 162 169 181 166 159 154 153 145 146 129 128 125 123 125 122 118 119 122 114 108 99 108 106 98
203 207 212 213 211 209 221 222 237 242 237 223 193 182 161 163 161 166 168 181 179 157 166 161 153 155 145 136 143 142 133 135 126 126 124 112 120 122 123 120 102 99
206 211 213 214 214 219 216 219 222 230 233 214 199 180 172 166 170 170 173 179 176 172 169 165 161 162 152 144 154 142 142 145 132 139 141 141 155 133 140 135 124 114
207 208 213 214 213 217 217 224 228 229 226 217 194 176 174 172 177 176 179 178 181 177 170 169 166 160 160 162 160 149 157 148 149 170 161 157 150 153 160 165 151 150
205 208 208 212 212 215 217 224 234 227 217 209 187 179 180 176 184 184 183 182 181 181 173 171 169 165 175 162 168 166 165 170 165 187 178 176 169 173 180 181 175 173
201 205 207 210 215 213 223 232 238 238 216 208 181 185 179 182 191 191 188 187 184 182 179 173 172 173 175 173 176 172 175 179 174 195 193 181 179 181 190 206 197 197
201 200 205 210 212 218 224 228 228 225 221 207 190 187 185 190 195 191 189 189 189 186 183 179 180 176 177 179 184 176 176 186 190 201 207 184 199 201 193 206 203 233
200 201 204 211 216 219 224 227 226 222 216 208 202 190 192 197 198 194 191 191 191 192 189 185 188 177 181 184 185 187 186 187 196 202 206 205 205 214 210 191 210 215
201 203 207 210 216 218 224 225 228 225 218 217 211 196 195 197 200 198 192 195 198 196 194 191 191 182 184 191 189 191 197 193 197 202 209 214 220 220 214 211 214 219
205 207 210 215 219 221 222 224 226 225 221 219 211 203 202 194 198 202 199 200 201 201 198 197 197 191 188 190 190 194 201 203 203 206 212 220 222 228 225 229 221 225
208 212 215 217 219 222 225 226 226 226 221 218 219 211 202 203 202 202 204 206 204 203 204 200 199 198 199 195 194 190 199 204 209 212 215 221 219 226 225 221 229 229
210 213 216 220 221 224 224 226 228 228 228 227 220 214 204 206 206 207 205 213 209 204 205 203 200 198 202 202 202 197 197 200 205 213 218 222 229 223 226 228 228 230
212 214 218 222 224 224 226 228 230 229 229 233 228 217 213 212 212 209 206 211 213 208 204 201 201 199 201 203 206 205 202 204 204 211 220 219 224 231 230 231 232 235
212 216 219 222 223 226 227 227 230 232 228 225 223 219 218 221 216 213 208 210 212 208 203 197 201 202 201 201 203 206 206 210 211 209 216 224 225 226 230 232 234 232
213 216 219 221 223 225 228 228 228 227 225 225 223 221 219 219 218 215 214 211 213 208 203 200 200 201 194 194 204 205 205 213 212 216 217 223 228 232 231 233 235 238
215 217 219 222 224 228 229 229 228 226 224 224 225 222 219 213 213 215 215 215 215 209 204 202 199 197 176 179 190 219 225 213 217 217 220 226 229 231 237 233 231 235
213 217 220 223 225 227 229 229 230 229 224 222 223 217 213 211 212 217 219 216 216 215 208 206 202 188 170 180 186 194 212 221 219 224 220 225 230 235 235 238 238 235
215 218 222 224 226 229 229 231 231 230 228 223 223 217 208 211 214 216 218 215 211 213 208 208 217 174 178 181 189 193 198 215 224 226 226 225 230 233 239 242 240 238
218 221 224 226 228 229 231 233 231 231 230 229 226 217 211 213 213 211 214 210 203 200 215 216 221 177 182 185 190 193 194 200 225 229 230 232 230 232 234 236 238 241
219 221 225 227 228 230 231 233 233 233 231 228 224 221 213 210 208 208 204 203 188 198 217 217 219 172 185 188 188 188 191 196 218 226 231 231 230 232 234 234 236 237
219 222 225 227 229 231 232 233 233 233 232 227 225 223 218 212 207 210 200 205 209 207 216 224 214 170 183 184 180 183 178 199 216 224 228 231 229 227 228 230 232 235
220 222 224 227 229 231 233 235 235 234 231 225 223 220 219 212 214 212 212 217 212 206 220 227 225 174 178 180 179 176 175 206 212 220 227 227 231 227 227 229 229 231
222 223 225 227 230 233 234 235 236 235 231 217 220 221 221 220 220 221 215 215 195 210 213 222 223 171 174 176 181 178 188 202 210 217 224 227 228 225 228 229 228 221
221 224 227 229 230 232 232 235 233 231 228 218 218 226 233 235 226 218 210 202 206 221 214 217 223 172 172 174 184 182 192 209 213 220 222 225 229 228 222 231 231 216
217 219 223 226 230 232 231 233 234 229 221 222 223 229 236 236 225 222 225 219 222 221 219 210 217 199 174 179 183 186 195 206 215 220 224 224 227 232 229 223 227 236